Seattle, WA

10:28 AM PDT on August 25, 2016 (GMT -0700)
Boeing Field-King County International

Weather History for KBFI - March, 2013

Change the Weather History Date:

Wednesday, March 27, 2013

  Actual Average Record
Temperature  
Mean Temperature 52 °F -  
Max Temperature 57 °F 52 °F 69 °F (2015)
Min Temperature 48 °F 39 °F 26 °F (1975)
Degree Days  
Heating Degree Days 14    
Growing Degree Days 2 (Base 50)    
Moisture  
Dew Point 40 °F    
Average Humidity 64    
Maximum Humidity 83    
Minimum Humidity 50    
Precipitation  
Precipitation 0.01 in - - ()
Sea Level Pressure  
Sea Level Pressure 29.97 in    
Wind  
Wind Speed 2 mph (NNW)    
Max Wind Speed 6 mph    
Max Gust Speed -    
Visibility 10 miles    
Events Rain    
Averages and records for this station are not official NWS values.
T = Trace of Precipitation, MM = Missing Value Source: NWS Daily Summary

Daily Weather History Graph

Daily Weather History Graph

Search for Another Location

Airport or City:

Trip Planner

Search our weather history database for the weather conditions in past years. The results will help you decide how hot, cold, wet, or windy it might be!

Date:

Astronomy

Mar. 27, 2013 Rise Set
Actual Time 6:57 AM PDT 7:32 PM PDT
Civil Twilight 6:26 AM PDT 8:03 PM PDT
Nautical Twilight 5:49 AM PDT 8:40 PM PDT
Astronomical Twilight 5:11 AM PDT 9:18 PM PDT
Moon 8:28 PM PDT (3/27) 6:47 AM PDT (3/27)
Length of Visible Light 13h 37m
Length of Day
12h 35m
Full, 100% of the Moon is Illuminated
Mar 27
Full
Apr 2
Last Quarter
Apr 10
New
Apr 18
First Quarter
Apr 25
Full

Hourly Weather History & Observations

Time (PDT) Temp. Dew Point Humidity Pressure Visibility Wind Dir Wind Speed Gust Speed Precip Events Conditions
12:53 AM 51.1 °F 35.1 °F 54% 29.98 in 10.0 mi NW 3.5 mph - N/A   Overcast
1:53 AM 52.0 °F 34.0 °F 50% 29.98 in 10.0 mi Calm Calm - N/A   Overcast
2:53 AM 51.1 °F 36.0 °F 56% 29.97 in 10.0 mi North 3.5 mph - N/A   Overcast
3:53 AM 50.0 °F 37.0 °F 61% 29.96 in 10.0 mi Calm Calm - 0.00 in   Overcast
4:53 AM 50.0 °F 37.0 °F 61% 29.96 in 10.0 mi Calm Calm - N/A   Overcast
5:53 AM 50.0 °F 37.0 °F 61% 29.95 in 10.0 mi NNW 3.5 mph - N/A   Overcast
6:53 AM 48.9 °F 36.0 °F 61% 29.95 in 10.0 mi NNE 3.5 mph - N/A   Overcast
7:53 AM 50.0 °F 37.0 °F 61% 29.95 in 10.0 mi Variable 3.5 mph - N/A   Overcast
8:53 AM 50.0 °F 39.0 °F 66% 29.96 in 10.0 mi Calm Calm - N/A   Overcast
9:53 AM 51.1 °F 39.0 °F 63% 29.96 in 10.0 mi Calm Calm - N/A   Mostly Cloudy
10:53 AM 52.0 °F 39.0 °F 61% 29.97 in 10.0 mi NW 3.5 mph - N/A   Mostly Cloudy
11:53 AM 52.0 °F 39.9 °F 63% 29.97 in 10.0 mi West 3.5 mph - N/A   Overcast
12:53 PM 54.0 °F 39.9 °F 59% 29.97 in 10.0 mi Calm Calm - N/A   Overcast
1:53 PM 55.9 °F 39.0 °F 53% 29.97 in 10.0 mi Calm Calm - N/A   Mostly Cloudy
2:53 PM 55.0 °F 39.9 °F 57% 29.97 in 10.0 mi WNW 3.5 mph - 0.00 in Rain Light Rain
3:53 PM 54.0 °F 43.0 °F 66% 29.98 in 9.0 mi NW 3.5 mph - 0.01 in Rain Light Rain
4:53 PM 55.0 °F 45.0 °F 69% 29.97 in 10.0 mi NE 3.5 mph - 0.00 in   Overcast
5:53 PM 55.0 °F 44.1 °F 67% 29.97 in 10.0 mi NE 5.8 mph - N/A   Mostly Cloudy
6:53 PM 55.9 °F 44.1 °F 64% 29.96 in 10.0 mi NE 3.5 mph - N/A   Scattered Clouds
7:53 PM 54.0 °F 43.0 °F 66% 29.96 in 10.0 mi Calm Calm - N/A   Partly Cloudy
8:53 PM 52.0 °F 44.1 °F 74% 29.97 in 10.0 mi Calm Calm - N/A   Scattered Clouds
9:53 PM 50.0 °F 43.0 °F 77% 29.98 in 10.0 mi Calm Calm - N/A   Scattered Clouds
10:53 PM 48.9 °F 43.0 °F 80% 29.99 in 10.0 mi Calm Calm - N/A   Clear
11:53 PM 48.0 °F 43.0 °F 83% 30.00 in 10.0 mi Calm Calm - N/A   Clear